Cloud_Cover
0 0 0 0 0 0 0 0 0 0 0 0 0 0 0 0 0 0 0 0 0 12 32 24 32 36 20 12 44 64 32 20 32 44 48 56 64 68 88 44 32 36 44 24 36 64 76 88 88 88 88 88 88 88 76 76 76 80 80 80 68 64 88 88 88 88 88 88 88 88 88 88 76 64 76 76 76 76 68 88 80 64 56 48 56 68
0 0 0 0 0 0 0 0 0 0 0 0 0 0 0 0 0 0 8 20 32 44 56 36 44 56 32 32 20 20 24 32 48 64 68 68 76 80 80 44 36 36 24 36 44 48 48 80 88 80 64 68 68 56 20 24 36 44 56 36 36 48 68 76 88 88 88 88 88 88 92 92 88 88 88 88 80 80 80 88 80 64 48 56 64 68
0 0 0 0 0 0 0 0 0 0 0 0 0 0 8 20 20 20 36 56 68 76 68 32 24 36 56 44 24 12 0 12 24 44 64 44 36 36 36 32 20 20 32 20 36 64 76 64 64 44 0 12 12 12 8 12 20 44 88 44 24 32 44 64 76 88 88 88 88 88 92 92 88 88 88 88 88 88 80 88 88 80 68 88 88 80
0 0 0 0 0 0 0 0 0 0 0 0 0 8 32 44 32 32 80 68 64 56 32 32 44 44 36 24 8 0 0 0 8 8 8 20 12 8 8 32 24 8 8 0 0 8 24 12 8 8 12 8 8 8 8 8 12 32 76 44 36 36 44 76 88 88 88 88 88 88 88 88 88 88 76 80 88 88 68 88 88 88 88 88 92 92
12 0 8 0 0 0 0 0 0 0 0 0 20 44 56 64 64 64 80 64 56 48 48 36 36 32 8 12 8 0 0 0 8 12 20 20 12 8 8 0 0 0 0 0 0 0 0 32 32 24 12 12 8 12 24 24 36 48 68 64 64 64 68 88 88 88 88 88 88 88 92 92 88 80 64 76 80 92 92 92 92 88 88 92 92 88
32 12 20 8 0 0 0 0 0 0 0 12 48 80 68 80 80 80 76 80 68 48 44 8 0 0 8 8 8 0 0 0 0 0 8 0 0 0 0 0 0 0 0 12 12 12 12 56 44 20 8 8 12 24 44 36 64 88 88 88 88 88 88 92 88 88 88 88 88 92 92 92 88 88 88 88 92 92 92 92 92 92 92 92 92 88
44 36 44 24 8 0 0 0 8 8 20 48 76 88 80 80 88 76 32 44 36 24 12 0 0 0 0 0 0 0 0 0 0 0 0 0 0 0 0 0 0 0 8 32 36 36 44 48 36 12 12 24 32 36 56 56 76 88 88 88 88 88 88 92 88 88 88 88 88 88 88 88 88 88 88 88 88 88 68 88 92 92 92 92 92 92
68 64 36 24 12 0 0 24 24 32 48 76 88 88 88 88 64 32 0 8 20 20 0 0 0 0 0 0 0 0 0 0 0 0 0 0 0 0 0 12 24 32 32 36 44 44 36 24 24 20 20 44 48 56 80 88 88 88 88 88 88 88 88 88 88 88 88 88 88 88 88 76 76 80 88 64 56 56 36 64 80 92 92 92 92 88
68 48 12 24 24 12 8 56 68 68 76 88 76 64 48 36 20 0 0 0 0 0 0 0 0 0 0 0 0 0 0 8 12 8 0 12 20 20 20 32 44 48 44 32 32 36 24 32 32 32 24 44 48 56 56 64 76 88 80 88 88 88 88 88 76 68 88 88 76 64 56 44 36 44 48 48 36 32 44 48 56 68 88 88 88 88
76 64 32 32 36 48 44 76 88 88 88 88 64 32 12 0 0 0 0 0 0 0 0 0 0 0 8 0 0 0 8 24 32 32 36 36 44 48 56 44 36 36 44 32 32 32 36 36 36 36 36 36 32 32 36 32 44 48 36 48 68 76 44 56 56 56 88 88 80 68 56 36 48 48 24 56 64 64 76 76 76 76 88 88 88 88
80 76 76 68 68 76 76 88 88 80 76 68 36 8 0 0 0 0 0 0 0 0 0 0 8 24 56 20 8 8 24 44 48 56 56 68 68 56 48 64 64 48 48 48 48 48 48 48 48 44 44 36 24 32 44 36 36 32 12 20 32 32 20 32 44 56 88 88 88 88 80 76 76 76 68 56 64 76 88 88 88 88 88 88 88 88
80 80 88 88 88 88 88 88 64 36 24 32 12 0 0 0 0 0 0 0 0 0 8 20 36 64 88 68 36 20 32 64 68 68 76 88 68 44 36 44 44 48 56 48 48 56 56 56 56 48 44 56 48 44 48 36 36 32 20 24 24 24 32 32 56 68 64 64 48 48 76 64 48 48 68 44 44 56 88 68 64 64 48 56 76 88
88 88 88 88 88 88 88 56 36 24 24 12 8 0 0 0 0 0 0 8 8 12 56 64 76 80 68 80 64 44 48 76 80 80 88 88 80 76 76 36 24 32 56 56 56 56 64 64 56 56 68 56 48 44 44 32 24 32 68 68 56 36 32 32 36 48 48 36 48 64 48 44 64 68 48 44 56 76 88 64 44 44 76 76 80 88
88 88 88 88 76 68 64 68 68 56 24 8 0 0 0 0 20 44 48 24 20 36 76 80 80 80 80 88 80 80 80 80 80 88 88 64 48 48 44 36 48 76 80 68 56 56 76 76 64 56 64 48 36 32 32 36 56 76 88 88 64 36 56 32 32 48 76 76 80 80 76 76 80 80 64 76 80 88 88 80 76 76 88 88 88 88
88 80 68 48 36 44 80 68 48 24 0 0 0 0 0 0 12 44 80 48 56 76 80 80 80 88 88 88 88 88 88 80 80 80 76 36 48 68 56 68 80 80 88 76 44 36 64 76 68 56 48 44 44 44 36 68 88 76 44 44 44 44 64 76 76 80 88 88 88 88 88 88 88 88 88 88 80 80 88 88 88 88 88 88 88 88
68 44 32 64 76 76 80 48 24 8 0 0 0 0 12 24 48 76 80 80 64 56 80 80 80 76 48 76 88 88 88 88 80 80 76 76 80 88 80 88 88 88 88 88 76 68 64 68 64 56 48 48 64 68 76 64 56 48 48 48 56 56 44 48 64 64 64 56 48 48 64 80 76 68 64 76 80 88 88 88 88 88 88 88 88 88
76 80 76 80 80 68 32 8 0 0 0 0 8 32 76 76 80 80 80 80 80 80 80 80 80 80 76 56 32 32 88 88 80 80 80 88 68 64 88 88 88 88 88 88 88 80 64 68 68 64 64 68 80 88 88 76 64 56 56 56 44 36 32 32 44 48 48 48 48 48 44 76 64 48 80 80 88 88 88 88 88 88 88 88 88 88
80 80 80 80 68 44 0 0 0 0 0 24 56 80 80 68 76 80 80 80 80 80 80 80 80 80 80 76 36 0 0 64 88 80 80 88 88 88 88 88 88 88 88 56 48 56 68 56 64 76 80 80 80 88 88 88 80 76 64 56 48 44 44 44 36 36 48 48 48 48 48 48 64 88 88 88 76 76 88 88 80 68 44 76 88 88
80 76 56 44 24 8 0 0 0 0 8 64 80 80 80 80 80 80 80 80 80 80 80 80 80 80 80 80 44 20 76 80 88 88 88 88 88 88 80 80 88 88 88 64 68 80 80 32 56 88 92 80 76 80 80 88 88 76 64 56 56 48 48 48 44 48 88 88 88 80 56 80 88 88 88 88 88 88 88 88 88 80 56 80 88 88
36 0 0 0 0 0 0 0 0 20 80 80 80 80 80 80 80 80 80 80 80 80 80 80 80 80 80 80 56 44 88 88 80 80 88 80 76 80 88 88 88 88 88 88 76 64 68 44 36 36 36 48 68 88 88 76 76 68 64 56 48 56 68 68 64 56 68 64 56 56 88 88 76 68 88 88 88 88 88 88 88 88 88 88 88 88
8 0 0 0 0 0 20 32 24 24 80 88 88 80 80 80 80 80 80 80 80 88 88 80 80 80 80 80 80 76 48 76 88 80 80 88 88 80 80 80 80 80 80 80 76 64 48 56 48 44 56 56 44 36 36 76 80 68 64 80 68 44 44 56 56 56 64 80 68 64 88 88 68 64 88 88 88 88 88 88 88 88 88 88 88 88
0 0 0 0 8 20 36 20 20 44 88 80 80 80 80 80 80 76 48 76 88 80 80 80 80 80 80 80 80 80 88 88 88 88 80 88 80 64 32 68 80 80 80 80 64 56 68 68 64 64 76 56 48 64 80 76 76 76 64 76 64 44 44 48 48 48 56 80 88 80 68 64 64 56 56 76 80 80 80 56 64 80 88 68 76 88
0 0 0 8 44 76 48 76 88 88 88 88 88 88 80 80 80 80 80 80 76 76 80 80 80 80 76 80 80 88 88 88 88 88 80 80 64 44 36 76 80 80 76 56 64 80 80 64 68 76 68 48 44 56 68 76 80 80 80 68 64 56 48 64 64 56 56 68 80 76 64 64 76 80 68 68 56 48 48 48 76 88 68 56 68 80
32 36 44 76 80 80 76 80 88 88 88 88 88 88 88 88 80 80 68 68 76 80 80 80 80 68 24 68 80 80 80 88 88 88 88 80 80 80 80 80 80 76 44 68 80 80 76 56 56 64 76 48 44 56 76 76 80 88 88 88 88 80 68 68 64 56 64 56 56 68 64 80 76 68 88 88 88 88 88 88 88 92 92 92 88 80
88 88 88 88 88 88 80 76 80 88 88 88 88 88 80 80 80 80 88 88 88 88 88 80 80 68 36 76 80 80 80 80 88 88 88 80 80 76 64 76 80 80 80 56 68 80 64 64 68 76 76 64 64 64 48 44 56 76 88 80 80 80 76 64 56 64 88 68 64 68 88 88 80 80 88 88 88 88 88 88 88 88 92 88 88 80
80 88 88 88 88 76 48 36 48 76 88 88 88 88 88 76 68 76 88 88 88 88 80 80 80 80 80 80 80 80 68 80 88 88 88 80 68 56 36 76 88 80 80 56 68 88 88 88 76 68 64 56 48 44 44 36 36 44 80 68 76 88 88 80 80 88 88 88 88 88 88 80 68 68 80 80 80 80 80 88 88 88 88 88 88 88
88 80 76 76 68 48 12 12 24 48 88 88 92 92 92 92 88 80 80 80 80 88 88 80 80 80 80 80 76 68 68 80 80 80 88 80 56 32 32 76 88 88 80 80 80 80 88 76 68 64 68 48 44 44 44 48 48 56 88 80 80 80 88 88 88 88 92 80 76 76 80 80 80 76 64 64 64 56 56 68 68 68 76 80 80 88
76 56 36 32 24 20 20 32 56 88 88 92 92 92 92 92 88 76 68 80 88 88 88 80 76 80 80 80 68 56 56 64 76 80 88 80 80 68 56 80 88 88 80 80 80 80 92 68 48 44 44 56 56 48 48 68 68 76 88 92 92 92 92 92 88 88 92 80 76 76 68 64 56 56 64 64 64 64 48 48 56 64 64 68 80 88
36 20 20 20 24 36 48 56 64 76 76 88 88 88 88 88 88 80 68 80 80 80 80 76 76 76 76 76 80 76 48 44 56 80 88 80 80 80 88 88 88 88 80 80 80 88 92 88 76 56 44 56 68 76 68 80 88 88 92 92 92 92 92 88 80 80 80 80 76 76 80 68 64 68 88 80 88 80 68 68 76 88 88 88 88 80
8 12 12 12 32 48 76 64 64 68 68 80 88 88 88 88 92 92 88 88 80 80 76 76 76 76 80 76 76 64 20 20 56 88 88 80 80 80 88 88 88 88 80 80 80 88 92 92 80 68 56 76 88 88 88 88 80 80 88 92 92 92 92 88 88 80 80 88 88 88 88 88 88 88 92 88 88 88 92 92 92 92 88 88 80 76
12 24 44 36 32 44 68 68 76 80 80 80 80 80 88 92 92 92 88 88 80 80 76 76 76 80 88 80 76 68 56 24 48 80 88 88 80 80 88 88 88 88 88 80 80 76 80 76 80 88 80 88 92 92 92 88 88 88 88 88 92 88 88 92 92 92 88 92 92 92 92 92 92 92 92 92 92 92 92 92 92 92 92 88 80 68
56 64 80 68 64 68 80 80 80 80 80 80 80 80 80 92 92 92 92 88 80 80 80 80 80 80 80 80 76 68 80 56 68 88 88 80 80 80 88 88 88 80 88 88 88 80 76 56 76 92 92 92 92 88 92 88 88 88 88 80 76 80 88 92 92 92 92 92 92 92 92 92 92 92 92 92 92 92 92 92 92 92 92 88 88 68
80 80 80 80 80 80 80 80 80 80 80 80 80 76 76 88 92 92 92 88 88 88 88 80 80 80 80 80 76 76 80 80 80 80 88 88 80 80 88 88 80 80 80 88 92 88 80 76 80 92 92 92 88 80 88 88 88 88 76 64 64 68 80 76 80 88 92 92 92 92 92 92 92 92 92 92 92 92 92 92 92 92 92 92 88 80
80 80 80 80 80 80 80 80 80 80 80 68 76 80 80 88 92 92 92 88 88 88 88 80 80 80 80 76 76 76 80 68 76 88 92 88 80 80 88 88 88 80 88 88 88 88 88 88 88 88 92 92 88 80 76 80 80 88 80 76 68 64 68 68 76 80 88 92 92 92 92 92 92 92 92 92 92 92 92 92 92 92 92 92 92 88
80 80 80 80 80 80 80 80 80 80 80 76 80 80 88 92 92 92 92 88 88 92 88 80 80 80 80 76 76 76 80 64 68 92 92 88 88 88 88 92 88 80 80 80 80 80 80 88 88 88 88 88 80 76 64 64 76 88 92 88 88 80 76 76 80 80 88 92 92 92 92 92 92 92 92 92 92 92 92 92 92 92 92 92 92 92
76 76 80 80 80 76 80 80 80 80 80 76 80 88 92 92 88 88 88 88 88 88 88 88 88 88 88 88 80 80 76 64 76 92 92 88 88 88 88 92 88 80 80 56 68 80 76 80 80 80 80 88 76 56 24 48 68 80 88 88 88 88 88 80 80 88 80 88 92 92 92 92 92 92 92 92 92 92 92 92 92 92 92 92 92 92
76 76 76 76 76 76 76 76 80 80 80 80 80 88 92 88 80 80 88 88 76 68 80 68 76 88 88 88 88 88 80 80 80 80 92 92 92 88 88 80 88 88 88 76 76 80 80 80 64 56 80 80 80 68 24 56 68 80 80 80 80 80 80 88 88 88 88 92 92 92 92 92 92 92 92 92 92 92 92 92 92 92 92 92 92 92
76 76 76 76 76 76 76 76 80 80 80 88 88 80 68 80 88 80 88 68 64 68 80 64 56 68 88 88 88 88 92 88 88 88 92 92 92 88 76 80 88 92 92 88 88 80 80 76 68 64 56 76 80 80 56 48 68 80 88 88 88 88 88 88 88 88 88 92 92 92 92 92 92 92 92 92 88 88 80 88 92 92 88 92 92 88
76 76 76 76 76 76 76 76 80 80 88 80 76 76 80 88 88 88 88 76 76 80 80 80 64 44 48 80 92 92 92 92 88 88 92 92 92 88 76 80 88 88 88 88 88 88 80 80 80 80 76 76 76 76 64 76 80 76 56 80 88 88 88 88 88 88 88 88 92 92 92 92 92 92 92 88 80 76 64 80 88 88 80 88 88 88
76 76 76 76 76 76 80 80 80 80 80 68 76 76 64 68 80 80 80 80 68 64 80 68 76 68 36 48 76 92 92 92 88 88 88 88 92 92 88 80 76 76 80 88 92 92 88 80 80 88 88 80 80 80 76 48 44 56 68 68 76 88 88 88 88 88 88 92 92 92 88 88 92 92 92 92 88 88 88 88 80 80 76 88 88 88
76 76 76 76 76 80 80 80 80 80 80 80 68 64 80 80 80 68 32 32 32 32 64 44 36 36 32 56 80 92 92 92 88 88 88 88 88 88 88 88 80 80 80 88 92 92 92 92 88 88 88 80 80 68 48 48 44 48 80 88 88 88 88 88 88 88 88 88 88 92 92 76 80 92 92 92 92 92 92 88 80 76 88 92 92 92
76 76 76 76 80 80 80 80 80 80 80 80 80 76 80 80 68 64 80 80 76 68 32 44 32 20 20 36 68 88 88 88 88 88 88 92 92 88 88 88 88 80 80 88 92 92 92 92 88 88 88 88 88 76 32 24 32 44 48 76 88 88 80 88 88 88 88 88 88 88 88 76 76 88 92 92 92 92 92 92 88 88 92 92 92 92
76 76 76 80 80 80 80 80 80 80 80 80 80 80 88 88 88 80 76 76 80 80 80 80 80 80 80 48 24 32 88 88 88 88 88 92 92 88 88 88 88 88 88 88 80 80 92 92 92 92 88 88 88 80 64 44 48 64 64 68 80 80 56 76 80 80 88 88 88 88 80 88 88 88 88 92 92 92 92 92 92 92 92 92 92 92
76 76 76 76 80 80 80 80 80 80 80 80 80 88 88 88 88 88 80 80 80 80 80 80 80 80 80 68 64 68 88 88 88 88 88 92 92 92 88 92 92 92 92 88 80 80 80 88 80 80 88 88 88 80 76 80 80 68 64 76 88 92 92 76 76 88 76 80 88 92 88 88 88 80 80 88 92 92 92 88 88 92 92 92 92 92
80 76 76 80 80 80 80 80 80 80 80 80 80 80 88 80 80 80 88 64 68 80 88 88 80 76 76 44 32 44 88 88 88 88 88 92 92 92 92 88 88 92 92 88 88 88 80 44 36 44 44 76 88 80 80 80 80 80 80 76 80 92 92 88 88 88 88 88 88 88 80 88 88 80 76 88 92 88 88 92 92 92 92 92 92 92
76 76 76 76 76 76 80 80 80 88 80 80 80 80 88 80 80 80 88 80 80 88 88 88 80 76 76 48 44 48 80 80 80 88 88 88 92 92 92 88 88 92 92 92 92 92 92 92 88 88 80 80 76 76 76 76 80 88 76 80 88 92 88 88 88 88 92 92 88 80 80 88 88 88 88 92 92 92 92 92 92 92 92 92 92 92
76 76 76 76 80 80 80 88 80 80 76 80 80 80 88 88 88 80 80 88 88 80 88 88 88 88 92 80 64 56 92 80 76 80 88 88 88 88 88 92 92 92 92 92 92 92 92 92 88 80 80 68 56 44 36 44 68 88 68 76 80 92 92 88 88 88 92 92 92 88 76 80 88 88 92 92 92 92 92 92 92 92 92 92 92 92
80 80 80 76 76 76 80 88 80 80 76 76 76 80 88 88 88 88 76 80 88 88 88 88 88 88 88 80 80 80 92 88 80 80 80 88 88 88 88 88 92 92 92 92 92 92 92 88 88 80 80 76 76 76 64 64 68 80 88 92 92 92 92 88 88 92 92 92 88 80 76 80 88 88 92 92 92 92 92 92 92 92 92 92 92 92
80 80 80 76 76 76 80 88 80 80 76 76 80 80 80 88 88 88 88 88 88 88 88 88 88 88 88 80 80 80 88 88 88 88 88 88 88 80 80 76 80 88 92 92 92 92 92 92 88 80 64 48 64 76 80 80 80 88 92 92 92 92 92 88 92 92 92 92 92 88 92 88 92 92 92 92 92 92 92 92 92 92 92 92 92 92
80 80 80 80 80 80 80 80 80 80 76 80 80 80 80 76 80 88 92 88 88 88 88 88 88 88 88 76 68 76 88 88 88 88 80 88 88 88 80 80 76 76 88 88 80 80 88 88 88 80 56 44 56 68 80 80 88 92 88 92 92 92 92 92 92 92 92 92 92 92 92 92 92 92 92 92 88 92 92 92 92 92 92 92 92 92
76 80 80 88 88 88 80 80 80 80 80 80 80 76 88 56 64 76 88 92 88 88 88 88 88 88 88 76 76 80 92 92 88 88 76 88 88 88 88 88 88 88 76 76 68 64 76 76 80 88 88 56 44 48 80 88 92 92 88 88 88 92 92 92 92 92 92 92 92 92 92 92 92 92 88 88 88 92 92 92 92 92 92 92 92 92